Flag for Netherlands Weather past 2 weeks in Emmen, Netherlands

Now
38 °F

Chilly.


Feels Like: 36 °F
Forecast: 35 / 41 °F
Wind: 3 mph from West

Location: Meppen

Current Time: Jan 26, 2015 at 10:31:03 PM

Latest Report: Jan 26, 2015 at 9:00 PM


Visibility: 4 mi

Pressure: 30.02 "Hg

Humidity: 90%

Dew point: 36 °F

Location of EmmenLocation

Historic Weather in Emmen — Graph

°F

Emmen temperature yesterday

Maximum temperature yesterday: 39 °F (at 2:00 PM)
Minimum temperature yesterday: 30 °F (at 2:00 AM)
Average temperature yesterday: 35 °F

Past Weeks' High & Low Weather Summary

 TemperatureHumidityPressure
High49 °F (Jan 12, 6:00 PM)96% (Jan 17, 9:00 AM)30.35 "Hg (Jan 17, 9:00 AM)
Low24 °F (Jan 23, 3:00 AM)65% (Jan 15, 11:00 PM)29.32 "Hg (Jan 15, 2:00 PM)
Average36 °F87%29.91 "Hg
* Reported Jan 11 9:00 PM — Jan 26 9:00 PM, Emmen, Weather by CustomWeather, © 2014

Note: Actual official high and low records may vary slightly from our data, if they occured in-between our weather recording intervals... More about our weather records

Advertising

Emmen weather history for previous 24 hours

 ConditionsComfort  
Time TempWeatherWind HumidityBarometerVisibility
9:00 PM
Jan 26
38 °FChilly.3 mph90%30.02 "Hg4 mi
8:00 PM39 °FChilly.3 mph87%30.01 "Hg6 mi
6:00 PM42 °FQuite cool.3 mph90%29.99 "Hg5 mi
5:00 PM43 °FQuite cool.3 mph94%29.97 "Hg4 mi
3:00 PM41 °FRain. Low clouds.5 mph95%29.96 "Hg1 mi
2:00 PM40 °FDrizzle. Low clouds.6 mph95%29.98 "Hg1 mi
12:00 PM39 °FRain. Low clouds.6 mph95%30.03 "Hg1 mi
11:00 AM38 °FDrizzle. Low clouds.5 mph95%30.06 "Hg1 mi
9:00 AM38 °FRain. Low clouds.5 mph95%30.10 "Hg1 mi
8:00 AM38 °FDrizzle. Low clouds.5 mph94%30.11 "Hg1 mi
7:00 AM37 °FLow clouds.5 mph95%30.13 "Hg1 mi
6:00 AM37 °FDrizzle. Low clouds.5 mph95%30.14 "Hg1 mi
5:00 AM37 °FChilly.5 mph95%30.16 "Hg1 mi
3:00 AM37 °FChilly.3 mph95%30.23 "Hg2 mi
2:00 AM37 °FChilly.3 mph96%30.24 "Hg1 mi
12:00 AM37 °FChilly.3 mph95%30.28 "Hg1 mi
11:00 PM
Jan 25
37 °FChilly.3 mph95%30.29 "Hg1 mi
Weather by CustomWeather, © 2014

See weather overviewHow to use our weather pages